PRIVATE WETTERSTATION BILLIGHEIM-ALLFELD                       ZURCK
Wetterdaten: Montag, 17.03.2014
Datum Zeit Temp. A. Temp. A. min Temp. A. max Feuchte A. Luftdruck Regen Wind Richtung Richtung Sonnenschein ET Solar Taupunkt Windchill Windben Empfang
17.03.2014 00:00 9,4 C 9,4 C 9,4 C 80 % 1021,0 hPa 0,0 l/m 3,2 km/h (1 Bft) SW 225 0 min 0,025 mm 0 W/m 6,1 C 9,4 C 9,7 km/h (2 Bft) 100 %
17.03.2014 00:10 9,3 C 9,3 C 9,4 C 80 % 1020,9 hPa 0,0 l/m 3,2 km/h (1 Bft) SW 225 0 min 0,000 mm 0 W/m 6,0 C 9,3 C 11,3 km/h (2 Bft) 100 %
17.03.2014 00:20 9,3 C 9,2 C 9,3 C 80 % 1020,8 hPa 0,0 l/m 4,8 km/h (1 Bft) S-SW 202 0 min 0,000 mm 0 W/m 6,0 C 9,3 C 11,3 km/h (2 Bft) 100 %
17.03.2014 00:30 9,3 C 9,3 C 9,3 C 81 % 1020,8 hPa 0,0 l/m 3,2 km/h (1 Bft) SW 225 0 min 0,000 mm 0 W/m 6,2 C 9,3 C 14,5 km/h (3 Bft) 100 %
17.03.2014 00:40 9,2 C 9,1 C 9,3 C 81 % 1020,7 hPa 0,0 l/m 3,2 km/h (1 Bft) SW 225 0 min 0,000 mm 0 W/m 6,1 C 9,2 C 11,3 km/h (2 Bft) 100 %
17.03.2014 00:50 9,1 C 9,1 C 9,2 C 81 % 1020,8 hPa 0,0 l/m 1,6 km/h (1 Bft) W-SW 247 0 min 0,000 mm 0 W/m 6,0 C 9,1 C 11,3 km/h (2 Bft) 100 %
17.03.2014 01:00 8,8 C 8,8 C 9,1 C 82 % 1020,7 hPa 0,0 l/m 3,2 km/h (1 Bft) S-SW 202 0 min 0,025 mm 0 W/m 5,9 C 8,8 C 11,3 km/h (2 Bft) 100 %
17.03.2014 01:10 8,7 C 8,7 C 8,9 C 82 % 1020,9 hPa 0,0 l/m 1,6 km/h (1 Bft) S 180 0 min 0,000 mm 0 W/m 5,8 C 8,7 C 8,0 km/h (2 Bft) 100 %
17.03.2014 01:20 8,5 C 8,5 C 8,7 C 82 % 1021,0 hPa 0,0 l/m 1,6 km/h (1 Bft) S-SO 157 0 min 0,000 mm 0 W/m 5,6 C 8,5 C 8,0 km/h (2 Bft) 100 %
17.03.2014 01:30 8,3 C 8,3 C 8,5 C 83 % 1021,0 hPa 0,0 l/m 0,0 km/h (0 Bft) S-SW 202 0 min 0,000 mm 0 W/m 5,6 C 8,3 C 4,8 km/h (1 Bft) 100 %
17.03.2014 01:40 8,3 C 8,3 C 8,3 C 83 % 1020,9 hPa 0,0 l/m 0,0 km/h (0 Bft) S 180 0 min 0,000 mm 0 W/m 5,6 C 8,3 C 4,8 km/h (1 Bft) 100 %
17.03.2014 01:50 8,2 C 8,2 C 8,3 C 84 % 1020,8 hPa 0,0 l/m 1,6 km/h (1 Bft) S 180 0 min 0,000 mm 0 W/m 5,7 C 8,2 C 4,8 km/h (1 Bft) 99 %
17.03.2014 02:00 8,3 C 8,2 C 8,3 C 83 % 1020,8 hPa 0,0 l/m 1,6 km/h (1 Bft) S-SO 157 0 min 0,000 mm 0 W/m 5,6 C 8,3 C 8,0 km/h (2 Bft) 100 %
17.03.2014 02:10 8,3 C 8,3 C 8,3 C 83 % 1020,8 hPa 0,0 l/m 0,0 km/h (0 Bft) S-SW 202 0 min 0,000 mm 0 W/m 5,6 C 8,3 C 3,2 km/h (1 Bft) 100 %
17.03.2014 02:20 8,1 C 8,1 C 8,3 C 84 % 1020,7 hPa 0,0 l/m 0,0 km/h (0 Bft) N 0 0 min 0,000 mm 0 W/m 5,6 C 8,1 C 0,0 km/h (0 Bft) 100 %
17.03.2014 02:30 8,0 C 8,0 C 8,1 C 84 % 1020,7 hPa 0,0 l/m 0,0 km/h (0 Bft) SW 225 0 min 0,000 mm 0 W/m 5,5 C 8,0 C 6,4 km/h (2 Bft) 100 %
17.03.2014 02:40 8,0 C 8,0 C 8,0 C 84 % 1020,7 hPa 0,0 l/m 1,6 km/h (1 Bft) SW 225 0 min 0,000 mm 0 W/m 5,5 C 8,0 C 8,0 km/h (2 Bft) 100 %
17.03.2014 02:50 8,0 C 8,0 C 8,0 C 84 % 1020,5 hPa 0,0 l/m 1,6 km/h (1 Bft) W-SW 247 0 min 0,000 mm 0 W/m 5,5 C 8,0 C 4,8 km/h (1 Bft) 90 %
17.03.2014 03:00 8,1 C 8,0 C 8,2 C 85 % 1020,4 hPa 0,0 l/m 1,6 km/h (1 Bft) W-SW 247 0 min 0,000 mm 0 W/m 5,7 C 8,1 C 11,3 km/h (2 Bft) 100 %
17.03.2014 03:10 8,2 C 8,1 C 8,2 C 84 % 1020,5 hPa 0,0 l/m 0,0 km/h (0 Bft) W 270 0 min 0,000 mm 0 W/m 5,7 C 8,2 C 4,8 km/h (1 Bft) 100 %
17.03.2014 03:20 8,2 C 8,2 C 8,3 C 84 % 1020,4 hPa 0,0 l/m 1,6 km/h (1 Bft) SW 225 0 min 0,000 mm 0 W/m 5,7 C 8,2 C 8,0 km/h (2 Bft) 100 %
17.03.2014 03:30 8,3 C 8,2 C 8,3 C 84 % 1020,4 hPa 0,0 l/m 3,2 km/h (1 Bft) SW 225 0 min 0,000 mm 0 W/m 5,8 C 8,3 C 12,9 km/h (3 Bft) 100 %
17.03.2014 03:40 8,4 C 8,3 C 8,4 C 84 % 1020,4 hPa 0,0 l/m 1,6 km/h (1 Bft) W 270 0 min 0,000 mm 0 W/m 5,9 C 8,4 C 12,9 km/h (3 Bft) 100 %
17.03.2014 03:50 8,3 C 8,3 C 8,4 C 83 % 1020,4 hPa 0,0 l/m 0,0 km/h (0 Bft) W-SW 247 0 min 0,000 mm 0 W/m 5,6 C 8,3 C 4,8 km/h (1 Bft) 100 %
17.03.2014 04:00 8,2 C 8,2 C 8,3 C 83 % 1020,4 hPa 0,0 l/m 0,0 km/h (0 Bft) W-SW 247 0 min 0,000 mm 0 W/m 5,5 C 8,2 C 1,6 km/h (1 Bft) 100 %
17.03.2014 04:10 8,0 C 8,0 C 8,2 C 84 % 1020,4 hPa 0,0 l/m 0,0 km/h (0 Bft) W-SW 247 0 min 0,000 mm 0 W/m 5,5 C 8,0 C 3,2 km/h (1 Bft) 100 %
17.03.2014 04:20 7,8 C 7,7 C 8,0 C 84 % 1020,3 hPa 0,0 l/m 0,0 km/h (0 Bft) W-SW 247 0 min 0,000 mm 0 W/m 5,3 C 7,8 C 4,8 km/h (1 Bft) 100 %
17.03.2014 04:30 7,6 C 7,6 C 7,8 C 85 % 1020,4 hPa 0,0 l/m 1,6 km/h (1 Bft) W-SW 247 0 min 0,000 mm 0 W/m 5,2 C 7,6 C 4,8 km/h (1 Bft) 100 %
17.03.2014 04:40 7,6 C 7,6 C 7,6 C 89 % 1020,4 hPa 0,0 l/m 1,6 km/h (1 Bft) W-SW 247 0 min 0,000 mm 0 W/m 5,9 C 7,6 C 6,4 km/h (2 Bft) 100 %
17.03.2014 04:50 7,4 C 7,4 C 7,6 C 85 % 1020,4 hPa 0,0 l/m 1,6 km/h (1 Bft) W-SW 247 0 min 0,000 mm 0 W/m 5,0 C 7,4 C 6,4 km/h (2 Bft) 99 %
17.03.2014 05:00 7,4 C 7,4 C 7,4 C 86 % 1020,4 hPa 0,0 l/m 3,2 km/h (1 Bft) W-SW 247 0 min 0,000 mm 0 W/m 5,2 C 7,4 C 11,3 km/h (2 Bft) 100 %
17.03.2014 05:10 7,4 C 7,4 C 7,4 C 86 % 1020,3 hPa 0,0 l/m 3,2 km/h (1 Bft) W 270 0 min 0,000 mm 0 W/m 5,2 C 7,4 C 9,7 km/h (2 Bft) 99 %
17.03.2014 05:20 7,6 C 7,4 C 7,6 C 86 % 1020,3 hPa 0,0 l/m 4,8 km/h (1 Bft) W 270 0 min 0,000 mm 0 W/m 5,4 C 7,6 C 16,1 km/h (3 Bft) 100 %
17.03.2014 05:30 7,7 C 7,6 C 7,7 C 86 % 1020,5 hPa 0,0 l/m 8,0 km/h (2 Bft) W 270 0 min 0,000 mm 0 W/m 5,5 C 6,4 C 17,7 km/h (3 Bft) 100 %
17.03.2014 05:40 7,8 C 7,7 C 7,9 C 86 % 1020,5 hPa 0,0 l/m 9,7 km/h (2 Bft) W-SW 247 0 min 0,000 mm 0 W/m 5,6 C 5,4 C 19,3 km/h (3 Bft) 100 %
17.03.2014 05:50 7,9 C 7,8 C 7,9 C 85 % 1020,5 hPa 0,0 l/m 6,4 km/h (2 Bft) W-SW 247 0 min 0,000 mm 0 W/m 5,5 C 7,9 C 17,7 km/h (3 Bft) 100 %
17.03.2014 06:00 7,9 C 7,8 C 7,9 C 85 % 1020,5 hPa 0,0 l/m 6,4 km/h (2 Bft) W 270 0 min 0,025 mm 0 W/m 5,5 C 7,9 C 17,7 km/h (3 Bft) 100 %
17.03.2014 06:10 7,8 C 7,8 C 7,8 C 86 % 1020,5 hPa 0,0 l/m 4,8 km/h (1 Bft) W 270 0 min 0,000 mm 0 W/m 5,6 C 7,8 C 11,3 km/h (2 Bft) 100 %
17.03.2014 06:20 7,8 C 7,8 C 7,8 C 86 % 1020,5 hPa 0,0 l/m 4,8 km/h (1 Bft) W 270 0 min 0,000 mm 0 W/m 5,6 C 7,8 C 17,7 km/h (3 Bft) 100 %
17.03.2014 06:30 7,8 C 7,8 C 7,9 C 86 % 1020,5 hPa 0,0 l/m 6,4 km/h (2 Bft) W-SW 247 0 min 0,000 mm 0 W/m 5,6 C 7,8 C 19,3 km/h (3 Bft) 100 %
17.03.2014 06:40 7,8 C 7,8 C 7,8 C 86 % 1020,6 hPa 0,0 l/m 4,8 km/h (1 Bft) W 270 0 min 0,000 mm 5 W/m 5,6 C 7,8 C 14,5 km/h (3 Bft) 100 %
17.03.2014 06:50 7,7 C 7,7 C 7,8 C 86 % 1020,6 hPa 0,0 l/m 6,4 km/h (2 Bft) W-SW 247 0 min 0,000 mm 14 W/m 5,5 C 7,7 C 16,1 km/h (3 Bft) 100 %
17.03.2014 07:00 7,7 C 7,7 C 7,7 C 86 % 1020,6 hPa 0,0 l/m 6,4 km/h (2 Bft) W 270 0 min 0,000 mm 23 W/m 5,5 C 7,7 C 12,9 km/h (3 Bft) 100 %
17.03.2014 07:10 7,7 C 7,7 C 7,8 C 86 % 1020,7 hPa 0,0 l/m 3,2 km/h (1 Bft) W-SW 247 0 min 0,000 mm 30 W/m 5,5 C 7,7 C 9,7 km/h (2 Bft) 100 %
17.03.2014 07:20 7,8 C 7,7 C 7,8 C 86 % 1020,7 hPa 0,0 l/m 4,8 km/h (1 Bft) W 270 0 min 0,000 mm 39 W/m 5,6 C 7,8 C 11,3 km/h (2 Bft) 100 %
17.03.2014 07:30 7,8 C 7,8 C 7,8 C 86 % 1020,9 hPa 0,0 l/m 3,2 km/h (1 Bft) W-SW 247 0 min 0,000 mm 58 W/m 5,6 C 7,8 C 9,7 km/h (2 Bft) 90 %
17.03.2014 07:40 7,9 C 7,8 C 7,9 C 86 % 1020,9 hPa 0,0 l/m 3,2 km/h (1 Bft) W 270 0 min 0,000 mm 65 W/m 5,7 C 7,9 C 14,5 km/h (3 Bft) 100 %
17.03.2014 07:50 8,1 C 7,9 C 8,1 C 86 % 1020,9 hPa 0,0 l/m 4,8 km/h (1 Bft) W 270 0 min 0,000 mm 113 W/m 5,9 C 8,1 C 19,3 km/h (3 Bft) 100 %
17.03.2014 08:00 8,5 C 8,1 C 8,5 C 86 % 1020,9 hPa 0,0 l/m 3,2 km/h (1 Bft) W 270 10 min 0,025 mm 172 W/m 6,3 C 8,5 C 14,5 km/h (3 Bft) 100 %
17.03.2014 08:10 9,1 C 8,5 C 9,1 C 89 % 1021,1 hPa 0,0 l/m 4,8 km/h (1 Bft) W 270 10 min 0,000 mm 225 W/m 7,4 C 9,1 C 20,9 km/h (4 Bft) 100 %
17.03.2014 08:20 9,3 C 9,1 C 9,4 C 83 % 1021,1 hPa 0,0 l/m 6,4 km/h (2 Bft) W 270 10 min 0,000 mm 209 W/m 6,6 C 9,3 C 19,3 km/h (3 Bft) 100 %
17.03.2014 08:30 9,3 C 9,3 C 9,3 C 83 % 1021,4 hPa 0,0 l/m 3,2 km/h (1 Bft) W 270 0 min 0,000 mm 127 W/m 6,6 C 9,3 C 12,9 km/h (3 Bft) 100 %
17.03.2014 08:40 9,4 C 9,3 C 9,4 C 83 % 1021,4 hPa 0,0 l/m 1,6 km/h (1 Bft) W 270 10 min 0,000 mm 153 W/m 6,7 C 9,4 C 8,0 km/h (2 Bft) 100 %
17.03.2014 08:50 9,6 C 9,4 C 9,6 C 83 % 1021,4 hPa 0,0 l/m 4,8 km/h (1 Bft) W 270 10 min 0,000 mm 276 W/m 6,9 C 9,6 C 17,7 km/h (3 Bft) 100 %
17.03.2014 09:00 9,8 C 9,6 C 9,8 C 81 % 1021,5 hPa 0,0 l/m 6,4 km/h (2 Bft) W 270 10 min 0,076 mm 316 W/m 6,7 C 9,8 C 19,3 km/h (3 Bft) 100 %
17.03.2014 09:10 9,9 C 9,8 C 9,9 C 81 % 1021,5 hPa 0,0 l/m 3,2 km/h (1 Bft) W-SW 247 10 min 0,000 mm 181 W/m 6,8 C 9,9 C 16,1 km/h (3 Bft) 100 %
17.03.2014 09:20 10,1 C 9,9 C 10,1 C 80 % 1021,6 hPa 0,0 l/m 6,4 km/h (2 Bft) W-SW 247 10 min 0,000 mm 223 W/m 6,8 C 10,1 C 19,3 km/h (3 Bft) 100 %
17.03.2014 09:30 10,2 C 10,1 C 10,2 C 79 % 1021,7 hPa 0,0 l/m 6,4 km/h (2 Bft) W-SW 247 10 min 0,000 mm 209 W/m 6,7 C 10,2 C 19,3 km/h (3 Bft) 100 %
17.03.2014 09:40 10,4 C 10,2 C 10,4 C 79 % 1021,6 hPa 0,0 l/m 4,8 km/h (1 Bft) W-NW 292 10 min 0,000 mm 448 W/m 6,9 C 10,4 C 17,7 km/h (3 Bft) 100 %
17.03.2014 09:50 10,9 C 10,4 C 10,9 C 77 % 1021,6 hPa 0,0 l/m 6,4 km/h (2 Bft) W-NW 292 10 min 0,000 mm 466 W/m 7,0 C 10,9 C 19,3 km/h (3 Bft) 99 %
17.03.2014 10:00 11,5 C 10,9 C 11,5 C 76 % 1021,7 hPa 0,0 l/m 4,8 km/h (1 Bft) W 270 10 min 0,127 mm 513 W/m 7,4 C 11,5 C 17,7 km/h (3 Bft) 100 %
17.03.2014 10:10 11,6 C 11,5 C 11,7 C 73 % 1021,7 hPa 0,0 l/m 11,3 km/h (2 Bft) W-NW 292 10 min 0,000 mm 387 W/m 6,9 C 8,7 C 25,7 km/h (4 Bft) 100 %
17.03.2014 10:20 11,4 C 11,4 C 11,6 C 74 % 1021,6 hPa 0,0 l/m 11,3 km/h (2 Bft) W 270 10 min 0,000 mm 376 W/m 6,9 C 8,5 C 24,1 km/h (4 Bft) 100 %
17.03.2014 10:30 11,7 C 11,4 C 11,7 C 74 % 1021,7 hPa 0,0 l/m 7,4 km/h (2 Bft) W-SW 251 10 min 0,000 mm 357 W/m 7,2 C 11,0 C 11,3 km/h (2 Bft) 100 %
17.03.2014 10:40 11,9 C 11,7 C 11,9 C 74 % 1021,6 hPa 0,0 l/m 9,7 km/h (2 Bft) W-NW 283 10 min 0,000 mm 297 W/m 7,4 C 9,9 C 17,7 km/h (3 Bft) 100 %
17.03.2014 10:50 12,1 C 11,9 C 12,1 C 74 % 1021,5 hPa 0,0 l/m 11,4 km/h (2 Bft) W-SW 246 10 min 0,000 mm 543 W/m 7,6 C 9,2 C 20,9 km/h (4 Bft) 100 %
17.03.2014 11:00 12,3 C 12,1 C 12,4 C 71 % 1021,4 hPa 0,0 l/m 9,4 km/h (2 Bft) W-SW 248 10 min 0,180 mm 278 W/m 7,2 C 10,5 C 20,9 km/h (4 Bft) 100 %
17.03.2014 11:10 12,4 C 12,3 C 12,4 C 72 % 1021,3 hPa 0,0 l/m 10,1 km/h (2 Bft) W-SW 255 10 min 0,000 mm 330 W/m 7,5 C 10,2 C 20,9 km/h (4 Bft) 100 %
17.03.2014 11:20 12,8 C 12,4 C 12,8 C 71 % 1021,3 hPa 0,0 l/m 7,0 km/h (2 Bft) W 275 10 min 0,000 mm 309 W/m 7,7 C 12,4 C 19,3 km/h (3 Bft) 99 %
17.03.2014 11:30 13,3 C 12,8 C 13,3 C 70 % 1021,2 hPa 0,0 l/m 9,0 km/h (2 Bft) NW 306 10 min 0,000 mm 606 W/m 7,9 C 11,8 C 20,9 km/h (4 Bft) 100 %
17.03.2014 11:40 13,5 C 13,3 C 13,5 C 70 % 1021,3 hPa 0,0 l/m 5,0 km/h (1 Bft) W 263 10 min 0,000 mm 642 W/m 8,1 C 13,5 C 16,1 km/h (3 Bft) 100 %
17.03.2014 11:50 13,8 C 13,5 C 13,8 C 68 % 1021,1 hPa 0,0 l/m 10,5 km/h (2 Bft) NW 316 10 min 0,000 mm 617 W/m 8,0 C 11,6 C 22,5 km/h (4 Bft) 100 %
17.03.2014 12:00 14,2 C 13,8 C 14,2 C 67 % 1021,0 hPa 0,0 l/m 11,6 km/h (2 Bft) N-NW 333 10 min 0,279 mm 601 W/m 8,2 C 11,5 C 22,5 km/h (4 Bft) 100 %
17.03.2014 12:10 14,5 C 14,2 C 14,5 C 67 % 1021,0 hPa 0,0 l/m 7,9 km/h (2 Bft) NW 313 10 min 0,000 mm 710 W/m 8,4 C 13,6 C 22,5 km/h (4 Bft) 100 %
17.03.2014 12:20 14,9 C 14,5 C 14,9 C 66 % 1020,8 hPa 0,0 l/m 7,6 km/h (2 Bft) W 277 10 min 0,000 mm 654 W/m 8,6 C 14,2 C 17,7 km/h (3 Bft) 99 %
17.03.2014 12:30 14,7 C 14,7 C 15,0 C 65 % 1020,7 hPa 0,0 l/m 8,7 km/h (2 Bft) W-SW 254 10 min 0,000 mm 643 W/m 8,2 C 13,4 C 20,9 km/h (4 Bft) 100 %
17.03.2014 12:40 14,5 C 14,5 C 14,7 C 65 % 1020,5 hPa 0,0 l/m 8,7 km/h (2 Bft) W 269 10 min 0,000 mm 631 W/m 8,0 C 13,2 C 20,9 km/h (4 Bft) 100 %
17.03.2014 12:50 14,6 C 14,4 C 14,6 C 64 % 1020,5 hPa 0,0 l/m 10,4 km/h (2 Bft) W 269 10 min 0,000 mm 613 W/m 7,9 C 12,5 C 22,5 km/h (4 Bft) 100 %
17.03.2014 13:00 14,7 C 14,6 C 14,7 C 65 % 1020,4 hPa 0,0 l/m 10,8 km/h (2 Bft) NW 312 10 min 0,356 mm 462 W/m 8,2 C 12,4 C 22,5 km/h (4 Bft) 99 %
17.03.2014 13:10 14,5 C 14,5 C 14,7 C 65 % 1020,4 hPa 0,0 l/m 9,0 km/h (2 Bft) W-NW 286 10 min 0,000 mm 269 W/m 8,0 C 13,1 C 24,1 km/h (4 Bft) 100 %
17.03.2014 13:20 14,5 C 14,4 C 14,5 C 66 % 1020,1 hPa 0,0 l/m 5,1 km/h (1 Bft) W 270 10 min 0,000 mm 712 W/m 8,2 C 14,5 C 19,3 km/h (3 Bft) 99 %
17.03.2014 13:30 14,6 C 14,5 C 14,6 C 66 % 1020,0 hPa 0,0 l/m 11,5 km/h (2 Bft) S-SW 198 10 min 0,000 mm 694 W/m 8,3 C 12,0 C 22,5 km/h (4 Bft) 100 %
17.03.2014 13:40 14,7 C 14,6 C 14,7 C 64 % 1020,0 hPa 0,0 l/m 12,1 km/h (2 Bft) W 260 10 min 0,000 mm 371 W/m 8,0 C 11,9 C 24,1 km/h (4 Bft) 100 %
17.03.2014 13:50 14,6 C 14,6 C 14,7 C 64 % 1019,9 hPa 0,0 l/m 8,0 km/h (2 Bft) SW 232 10 min 0,000 mm 232 W/m 7,9 C 13,7 C 17,7 km/h (3 Bft) 100 %
17.03.2014 14:00 14,8 C 14,6 C 14,8 C 66 % 1019,7 hPa 0,0 l/m 8,1 km/h (2 Bft) NW 322 10 min 0,254 mm 606 W/m 8,5 C 13,8 C 17,7 km/h (3 Bft) 100 %
17.03.2014 14:10 15,6 C 14,8 C 15,6 C 63 % 1019,6 hPa 0,0 l/m 8,5 km/h (2 Bft) NW 316 10 min 0,000 mm 668 W/m 8,6 C 14,5 C 20,9 km/h (4 Bft) 100 %
17.03.2014 14:20 16,3 C 15,6 C 16,3 C 61 % 1019,5 hPa 0,0 l/m 7,0 km/h (2 Bft) NW 314 10 min 0,000 mm 564 W/m 8,8 C 16,0 C 19,3 km/h (3 Bft) 100 %
17.03.2014 14:30 16,7 C 16,3 C 16,7 C 59 % 1019,5 hPa 0,0 l/m 7,8 km/h (2 Bft) W-NW 299 10 min 0,000 mm 538 W/m 8,6 C 16,0 C 17,7 km/h (3 Bft) 100 %
17.03.2014 14:40 16,8 C 16,7 C 16,8 C 57 % 1019,3 hPa 0,0 l/m 11,8 km/h (2 Bft) W 264 10 min 0,000 mm 512 W/m 8,2 C 14,4 C 24,1 km/h (4 Bft) 100 %
17.03.2014 14:50 16,3 C 16,3 C 16,8 C 59 % 1019,3 hPa 0,0 l/m 11,4 km/h (2 Bft) W 260 10 min 0,000 mm 492 W/m 8,3 C 14,0 C 22,5 km/h (4 Bft) 100 %
17.03.2014 15:00 16,3 C 16,2 C 16,3 C 60 % 1019,1 hPa 0,0 l/m 8,9 km/h (2 Bft) NW 311 10 min 0,330 mm 459 W/m 8,5 C 15,0 C 20,9 km/h (4 Bft) 100 %
17.03.2014 15:10 16,6 C 16,3 C 16,6 C 58 % 1019,0 hPa 0,0 l/m 9,5 km/h (2 Bft) W 269 10 min 0,000 mm 313 W/m 8,3 C 15,1 C 19,3 km/h (3 Bft) 100 %
17.03.2014 15:20 16,5 C 16,4 C 16,6 C 59 % 1019,0 hPa 0,0 l/m 11,7 km/h (2 Bft) SW 232 10 min 0,000 mm 469 W/m 8,5 C 14,1 C 24,1 km/h (4 Bft) 100 %
17.03.2014 15:30 16,5 C 16,4 C 16,5 C 58 % 1019,0 hPa 0,0 l/m 8,3 km/h (2 Bft) W-NW 284 10 min 0,000 mm 441 W/m 8,2 C 15,5 C 27,4 km/h (4 Bft) 100 %
17.03.2014 15:40 16,4 C 16,4 C 16,5 C 57 % 1018,8 hPa 0,0 l/m 12,4 km/h (3 Bft) W-NW 286 10 min 0,000 mm 250 W/m 7,9 C 13,7 C 25,7 km/h (4 Bft) 100 %
17.03.2014 15:50 16,4 C 16,4 C 16,4 C 58 % 1018,7 hPa 0,0 l/m 9,3 km/h (2 Bft) W-NW 292 0 min 0,000 mm 120 W/m 8,1 C 15,0 C 19,3 km/h (3 Bft) 100 %
17.03.2014 16:00 16,3 C 16,3 C 16,4 C 57 % 1018,6 hPa 0,0 l/m 11,6 km/h (2 Bft) NW 317 0 min 0,228 mm 107 W/m 7,8 C 13,9 C 20,9 km/h (4 Bft) 100 %
17.03.2014 16:10 16,2 C 16,2 C 16,3 C 57 % 1018,6 hPa 0,0 l/m 10,6 km/h (2 Bft) W-SW 254 0 min 0,000 mm 104 W/m 7,7 C 14,2 C 19,3 km/h (3 Bft) 100 %
17.03.2014 16:20 16,2 C 16,2 C 16,2 C 59 % 1018,5 hPa 0,0 l/m 6,9 km/h (2 Bft) SW 227 0 min 0,000 mm 93 W/m 8,2 C 15,9 C 20,9 km/h (4 Bft) 100 %
17.03.2014 16:30 16,1 C 16,1 C 16,2 C 59 % 1018,5 hPa 0,0 l/m 7,0 km/h (2 Bft) W-SW 254 0 min 0,000 mm 88 W/m 8,1 C 15,8 C 19,3 km/h (3 Bft) 100 %
17.03.2014 16:40 15,9 C 15,9 C 16,2 C 58 % 1018,5 hPa 0,0 l/m 10,6 km/h (2 Bft) W 266 0 min 0,000 mm 74 W/m 7,6 C 13,9 C 19,3 km/h (3 Bft) 100 %
17.03.2014 16:50 15,8 C 15,8 C 15,9 C 59 % 1018,5 hPa 0,0 l/m 8,9 km/h (2 Bft) W-NW 284 0 min 0,000 mm 69 W/m 7,8 C 14,5 C 20,9 km/h (4 Bft) 100 %
17.03.2014 17:00 15,8 C 15,8 C 15,8 C 59 % 1018,4 hPa 0,0 l/m 4,3 km/h (1 Bft) W-SW 253 0 min 0,102 mm 62 W/m 7,8 C 15,8 C 14,5 km/h (3 Bft) 100 %
17.03.2014 17:10 15,6 C 15,6 C 15,8 C 59 % 1018,4 hPa 0,0 l/m 6,1 km/h (2 Bft) NW 306 0 min 0,000 mm 49 W/m 7,6 C 15,6 C 19,3 km/h (3 Bft) 99 %
17.03.2014 17:20 15,4 C 15,4 C 15,6 C 60 % 1018,3 hPa 0,0 l/m 7,5 km/h (2 Bft) W-NW 302 0 min 0,000 mm 49 W/m 7,7 C 14,8 C 14,5 km/h (3 Bft) 100 %
17.03.2014 17:30 15,3 C 15,3 C 15,4 C 61 % 1018,2 hPa 0,0 l/m 7,0 km/h (2 Bft) W-NW 298 0 min 0,000 mm 44 W/m 7,8 C 15,0 C 14,5 km/h (3 Bft) 100 %
17.03.2014 17:40 15,2 C 15,2 C 15,3 C 61 % 1018,2 hPa 0,0 l/m 3,5 km/h (1 Bft) N-NW 328 0 min 0,000 mm 37 W/m 7,7 C 15,2 C 11,3 km/h (2 Bft) 99 %
17.03.2014 17:50 15,1 C 15,1 C 15,2 C 62 % 1018,2 hPa 0,0 l/m 1,6 km/h (1 Bft) NW 310 0 min 0,000 mm 32 W/m 7,9 C 15,1 C 6,4 km/h (2 Bft) 100 %
17.03.2014 18:00 14,8 C 14,8 C 15,1 C 63 % 1018,3 hPa 0,0 l/m 0,6 km/h (0 Bft) NW 304 0 min 0,051 mm 25 W/m 7,8 C 14,8 C 4,8 km/h (1 Bft) 100 %
17.03.2014 18:10 14,6 C 14,6 C 14,8 C 63 % 1018,4 hPa 0,0 l/m 0,7 km/h (0 Bft) W-NW 303 0 min 0,000 mm 18 W/m 7,6 C 14,6 C 4,8 km/h (1 Bft) 100 %
17.03.2014 18:20 14,4 C 14,4 C 14,6 C 64 % 1018,3 hPa 0,0 l/m 0,0 km/h (0 Bft) W-NW 303 0 min 0,000 mm 9 W/m 7,7 C 14,4 C 1,6 km/h (1 Bft) 100 %
17.03.2014 18:30 14,1 C 14,1 C 14,4 C 64 % 1018,4 hPa 0,0 l/m 0,0 km/h (0 Bft) W-NW 303 0 min 0,000 mm 0 W/m 7,4 C 14,1 C 0,0 km/h (0 Bft) 100 %
17.03.2014 18:40 13,7 C 13,7 C 14,1 C 65 % 1018,4 hPa 0,0 l/m 0,0 km/h (0 Bft) W-NW 303 0 min 0,000 mm 0 W/m 7,2 C 13,7 C 0,0 km/h (0 Bft) 100 %
17.03.2014 18:50 13,3 C 13,3 C 13,7 C 67 % 1018,4 hPa 0,0 l/m 0,0 km/h (0 Bft) W-NW 303 0 min 0,000 mm 0 W/m 7,3 C 13,3 C 0,0 km/h (0 Bft) 91 %
17.03.2014 19:00 13,0 C 13,0 C 13,3 C 68 % 1018,5 hPa 0,0 l/m 0,0 km/h (0 Bft) W-NW 303 0 min 0,000 mm 0 W/m 7,2 C 13,0 C 0,0 km/h (0 Bft) 100 %
17.03.2014 19:10 12,7 C 12,7 C 13,0 C 69 % 1018,6 hPa 0,0 l/m 0,0 km/h (0 Bft) W-NW 303 0 min 0,000 mm 0 W/m 7,2 C 12,7 C 0,0 km/h (0 Bft) 100 %
17.03.2014 19:20 12,3 C 12,3 C 12,7 C 70 % 1018,7 hPa 0,0 l/m 0,0 km/h (0 Bft) W-NW 303 0 min 0,000 mm 0 W/m 7,0 C 12,3 C 0,0 km/h (0 Bft) 100 %
17.03.2014 19:30 12,1 C 12,1 C 12,3 C 71 % 1018,7 hPa 0,0 l/m 0,0 km/h (0 Bft) W-NW 303 0 min 0,000 mm 0 W/m 7,0 C 12,1 C 0,0 km/h (0 Bft) 99 %
17.03.2014 19:40 11,6 C 11,6 C 12,1 C 72 % 1018,8 hPa 0,0 l/m 0,8 km/h (0 Bft) N-NO 19 0 min 0,000 mm 0 W/m 6,7 C 11,6 C 4,8 km/h (1 Bft) 100 %
17.03.2014 19:50 11,0 C 11,0 C 11,6 C 75 % 1018,9 hPa 0,0 l/m 0,4 km/h (0 Bft) N 355 0 min 0,000 mm 0 W/m 6,7 C 11,0 C 4,8 km/h (1 Bft) 100 %
17.03.2014 20:00 10,7 C 10,7 C 11,0 C 77 % 1019,0 hPa 0,0 l/m 0,0 km/h (0 Bft) N 355 0 min 0,025 mm 0 W/m 6,8 C 10,7 C 1,6 km/h (1 Bft) 100 %
17.03.2014 20:10 10,2 C 10,2 C 10,7 C 77 % 1019,0 hPa 0,0 l/m 0,4 km/h (0 Bft) N 355 0 min 0,000 mm 0 W/m 6,4 C 10,2 C 3,2 km/h (1 Bft) 100 %
17.03.2014 20:20 9,9 C 9,9 C 10,2 C 79 % 1019,1 hPa 0,0 l/m 0,8 km/h (0 Bft) N 355 0 min 0,000 mm 0 W/m 6,4 C 9,9 C 3,2 km/h (1 Bft) 100 %
17.03.2014 20:30 9,8 C 9,8 C 9,9 C 79 % 1019,2 hPa 0,0 l/m 0,4 km/h (0 Bft) N 355 0 min 0,000 mm 0 W/m 6,3 C 9,8 C 3,2 km/h (1 Bft) 100 %
17.03.2014 20:40 9,7 C 9,7 C 9,8 C 80 % 1019,3 hPa 0,0 l/m 0,0 km/h (0 Bft) N 355 0 min 0,000 mm 0 W/m 6,4 C 9,7 C 1,6 km/h (1 Bft) 100 %
17.03.2014 20:50 9,6 C 9,6 C 9,7 C 80 % 1019,4 hPa 0,0 l/m 0,6 km/h (0 Bft) N 355 0 min 0,000 mm 0 W/m 6,3 C 9,6 C 3,2 km/h (1 Bft) 100 %
17.03.2014 21:00 9,4 C 9,4 C 9,6 C 81 % 1019,3 hPa 0,0 l/m 0,0 km/h (0 Bft) N 355 0 min 0,026 mm 0 W/m 6,3 C 9,4 C 1,6 km/h (1 Bft) 100 %
17.03.2014 21:10 9,2 C 9,2 C 9,4 C 81 % 1019,4 hPa 0,0 l/m 0,0 km/h (0 Bft) N 360 0 min 0,000 mm 0 W/m 6,1 C 9,2 C 1,6 km/h (1 Bft) 100 %
17.03.2014 21:20 9,1 C 9,1 C 9,2 C 81 % 1019,3 hPa 0,0 l/m 0,0 km/h (0 Bft) N 360 0 min 0,000 mm 0 W/m 6,0 C 9,1 C 1,6 km/h (1 Bft) 100 %
17.03.2014 21:30 8,8 C 8,8 C 9,1 C 81 % 1019,5 hPa 0,0 l/m 0,0 km/h (0 Bft) N 360 0 min 0,000 mm 0 W/m 5,7 C 8,8 C 1,6 km/h (1 Bft) 100 %
17.03.2014 21:40 8,5 C 8,5 C 8,8 C 82 % 1019,4 hPa 0,0 l/m 0,0 km/h (0 Bft) N 0 0 min 0,000 mm 0 W/m 5,6 C 8,5 C 0,0 km/h (0 Bft) 100 %
17.03.2014 21:50 8,2 C 8,2 C 8,5 C 83 % 1019,4 hPa 0,0 l/m 0,0 km/h (0 Bft) N 0 0 min 0,000 mm 0 W/m 5,5 C 8,2 C 0,0 km/h (0 Bft) 100 %
17.03.2014 22:00 7,9 C 7,9 C 8,2 C 84 % 1019,4 hPa 0,0 l/m 0,0 km/h (0 Bft) N 0 0 min 0,000 mm 0 W/m 5,4 C 7,9 C 0,0 km/h (0 Bft) 100 %
17.03.2014 22:10 7,7 C 7,7 C 7,9 C 84 % 1019,3 hPa 0,0 l/m 0,0 km/h (0 Bft) N 360 0 min 0,000 mm 0 W/m 5,2 C 7,7 C 1,6 km/h (1 Bft) 100 %
17.03.2014 22:20 7,6 C 7,6 C 7,7 C 85 % 1019,3 hPa 0,0 l/m 0,0 km/h (0 Bft) N 360 0 min 0,000 mm 0 W/m 5,2 C 7,6 C 1,6 km/h (1 Bft) 94 %
17.03.2014 22:30 7,4 C 7,4 C 7,6 C 85 % 1019,2 hPa 0,0 l/m 0,0 km/h (0 Bft) N 360 0 min 0,000 mm 0 W/m 5,0 C 7,4 C 3,2 km/h (1 Bft) 95 %
17.03.2014 22:40 7,3 C 7,3 C 7,4 C 86 % 1019,4 hPa 0,0 l/m 0,0 km/h (0 Bft) N 360 0 min 0,000 mm 0 W/m 5,1 C 7,3 C 3,2 km/h (1 Bft) 100 %
17.03.2014 22:50 7,3 C 7,3 C 7,3 C 86 % 1019,4 hPa 0,0 l/m 0,0 km/h (0 Bft) N 0 0 min 0,000 mm 0 W/m 5,1 C 7,3 C 0,0 km/h (0 Bft) 100 %
17.03.2014 23:00 7,2 C 7,2 C 7,3 C 86 % 1019,2 hPa 0,0 l/m 0,0 km/h (0 Bft) N 0 0 min 0,000 mm 0 W/m 5,0 C 7,2 C 0,0 km/h (0 Bft) 100 %
17.03.2014 23:10 7,2 C 7,1 C 7,2 C 86 % 1019,3 hPa 0,0 l/m 0,0 km/h (0 Bft) N 0 0 min 0,000 mm 0 W/m 5,0 C 7,2 C 0,0 km/h (0 Bft) 100 %
17.03.2014 23:20 6,9 C 6,9 C 7,1 C 86 % 1019,3 hPa 0,0 l/m 0,0 km/h (0 Bft) N 0 0 min 0,000 mm 0 W/m 4,7 C 6,9 C 0,0 km/h (0 Bft) 100 %
17.03.2014 23:30 6,7 C 6,7 C 6,9 C 86 % 1019,2 hPa 0,0 l/m 0,0 km/h (0 Bft) N 360 0 min 0,000 mm 0 W/m 4,5 C 6,7 C 1,6 km/h (1 Bft) 100 %
17.03.2014 23:40 6,4 C 6,4 C 6,7 C 87 % 1019,2 hPa 0,0 l/m 0,0 km/h (0 Bft) N 0 0 min 0,000 mm 0 W/m 4,4 C 6,4 C 0,0 km/h (0 Bft) 100 %
17.03.2014 23:50 6,3 C 6,3 C 6,4 C 87 % 1019,1 hPa 0,0 l/m 0,0 km/h (0 Bft) N 360 0 min 0,000 mm 0 W/m 4,3 C 6,3 C 1,6 km/h (1 Bft) 100 %
_ Min-Zeit 23:50 23:50 23:50 14:40 17:30 - 01:30 - - - - - 23:50 05:40 02:20 02:50
Minimum _ 6,3 C 6,3 C 6,4 C 57 % 1018,2 hPa - 0,0 km/h (0 Bft) - - - - - 4,3 C 5,4 C 0,0 km/h (0 Bft) 90 %
_ Max-Zeit 14:40 14:40 14:40 04:40 09:30 00:00 15:40 - - 08:00 13:00 13:20 14:20 14:20 15:30 00:00
Maximum _ 16,8 C 16,7 C 16,8 C 89 % 1021,7 hPa 0,0 l/m 12,4 km/h
W-NW (3 Bft)
- - 10 min 0,356 mm 712 W/m 8,8 C 16,0 C 27,4 km/h
W-NW (4 Bft)
100 %
Durchschnitt _ 10,9 C 10,8 C 11,0 C 76 % 1020,0 hPa #0,0 l/m 4,3 km/h (1 Bft) W - #7:40 h #2,134 mm 303 W/m 6,6 C 10,4 C 11,8 km/h (2 Bft) 100 %
PRIVATE WETTERSTATION BILLIGHEIM-ALLFELD - www.neckar-odenwald-wetter.de - Holger Sonntag